This demonstration page uses our WeatherBlox Daily Observations layout. Learn more.

Left ArrowRight Arrow

39.29038, -76.61219

Hourly Observations for February 3, 2021

Temp ( °F °C ) Dew Point ( °F °C ) Humidity (%) Winds ( mph kmh ) Pressure ( in mb ) Visibility ( mi km ) Precip ( " mm )
12:54 am 00:54 Cloudy with Light Snow 31 -0.6 22 -5.6 69 69 WNW 14 22 29.56 1001 9 14 0.00 0.00
1:19 am 01:19 Cloudy 31 -0.6 22 -5.6 69 69 WNW 13 20 29.57 1001 9 14 0.00 0.00
1:54 am 01:54 Cloudy 31 -0.6 23 -5 72 72 WNW 15 24 29.56 1001 10 16 0.00 0.00
2:54 am 02:54 Cloudy 32 undefined 23 -5 69 69 WNW 12 19 29.57 1001 10 16 N/A
3:54 am 03:54 Cloudy 33 0.6 23 -5 66 66 WNW 13 20 29.57 1001 10 16 N/A
4:54 am 04:54 Cloudy with Light Snow 33 0.6 24 -4.4 70 70 WNW 14 22 29.57 1001 10 16 0.00 0.00
5:43 am 05:43 Cloudy 33 0.6 25 -3.9 72 72 WNW 15 24 29.59 1002 9 14 0.00 0.00
5:54 am 05:54 Cloudy 32 undefined 25 -3.9 75 75 WNW 13 20 29.59 1002 10 16 0.00 0.00
6:54 am 06:54 Mostly Cloudy 32 undefined 24 -4.4 73 73 WNW 14 22 29.60 1003 10 16 N/A
7:54 am 07:54 Mostly Cloudy 32 undefined 24 -4.4 73 73 WNW 14 22 29.62 1003 10 16 N/A
8:54 am 08:54 Mostly Cloudy 35 1.7 24 -4.4 64 64 WNW 16 26 29.63 1004 10 16 N/A
9:54 am 09:54 Mostly Cloudy 35 1.7 24 -4.4 64 64 W 17 28 29.64 1004 10 16 N/A
10:54 am 10:54 Cloudy with Light Snow 35 1.7 25 -3.9 67 67 WNW 18 30 29.66 1005 9 14 0.00 0.00
11:54 am 11:54 Cloudy with Light Snow 34 1.1 26 -3.3 73 73 W 12 19 29.66 1004 6 10 0.00 0.00
12:54 pm 12:54 Mostly Cloudy 37 2.8 24 -4.4 59 59 WNW 14 22 29.65 1004 10 16 0.00 0.00
1:54 pm 13:54 Mostly Cloudy 37 2.8 23 -5 57 57 WNW 17 28 29.65 1004 10 16 N/A
2:54 pm 14:54 Mostly Cloudy 38 3.3 23 -5 55 55 NW 18 30 29.66 1005 10 16 N/A
3:54 pm 15:54 Mostly Cloudy 40 4.4 23 -5 51 51 NW 15 24 29.68 1005 10 16 N/A
4:54 pm 16:54 Mostly Cloudy 41 5 23 -5 49 49 NW 12 19 29.70 1006 10 16 N/A
5:54 pm 17:54 Mostly Cloudy 38 3.3 24 -4.4 57 57 WSW 6 9 29.71 1006 10 16 N/A
6:54 pm 18:54 Mostly Cloudy 38 3.3 24 -4.4 57 57 W 12 19 29.73 1007 10 16 N/A
7:54 pm 19:54 Partly Cloudy 37 2.8 24 -4.4 59 59 W 12 19 29.75 1008 10 16 N/A
8:54 pm 20:54 Mostly Cloudy 38 3.3 22 -5.6 52 52 WNW 15 24 29.78 1008 10 16 N/A
9:54 pm 21:54 Partly Cloudy 36 2.2 22 -5.6 57 57 W 12 19 29.81 1009 10 16 N/A
10:54 pm 22:54 Mostly Clear 34 1.1 21 -6.1 59 59 WNW 15 24 29.83 1010 10 16 N/A
11:54 pm 23:54 Clear 33 0.6 20 -6.7 58 58 W 13 20 29.85 1011 10 16 N/A

Powered by AerisWeather